SCP
0 0 0 0 0 0 0 0 0 0 0 0 0 0 0 0 0 0 0 0 0 0 0 0 0 0 0 0 0 0 0 0 0 0 0 0 0 0 0 0 0 0 0 0 0 0 0 0 0 0 0 0 0 0
0 0 0 0 0 0 0 0 0 0 0 0 0 0 0 0 0 0 0 0 0 0 0 0 0 0 0 0 0 0 0 0 0 0 0 0 0 0 0 0 0 0 0 0 0 0 0 0 0 0 0 0 0 0
0 0 0 0 0 0 0 0 0 0 0 0 0 0 0 0 0 0 0 0 0 0 0 0 0 0 0 0 0 0 0 0 0 0 0 0 0 0 0 0 0 0 0 0 0 0 0 0 0 0 0 0 0 0
0 0 0 0 0 0 0 0 0 0 0 0 0 0 0 0 0 0 0 0 0 0 0 0 0 0 0 0 0 0 0 0 0 0 0 0 0 0 0 0 0 0 0 0 0 0 0 0 0 0 0 0 0 0
0 0 0 0 0 0 0 0 0 0 0 0 0 0 0 0 0 0 0 0 0 0 0 0 0 0 0 0 0 0 0 0 0 0 0 0 0 0 0 0 0 0 0 0 0 0 0 0 0 0 0 0 0 0
0 0 0 0 0 0 0 0 0 0 0 0 0 0 0 0 0 0 0 0 0 0 0 0 0 0 0 0 0 0 0 0 0 0 0 0 0 0 0 0 0 0 0 0 0 0 0 0 0 0 0 0 0 0
0 0 0 0 0 0 0 0 0 0 0 0 0 0 0 0 0 0 0 0 0 0 0 0 0 0 0 0 0 0 0 0 0 0 0 0 0 0 0 0 0 -0 0 0 0 0 0 0 0 0 0 0 0 0
0 0 0 0 0 0 0 0 0 0 0 0 0 0 0 0 0 0 0 0 0 0 0 0 0 0 0 0 0 0 0 0 0 0 0 0 0 0 0 0 0 0 0 0 0 0 0 0 0 0 0 0 -0 0
0 0 0 0 0 0 0 0 0 0 0 0 0 0 0 0 0 0 0 0 0 0 0 0 0 0 0 0 0 0 0 0 0 0 0 0 0 0 0 0 0 0 0 0 0 0 0 0 0 0 0 0 -0 -0
0 0 0 0 0 0 0 0 -0 -0 0 0 0 0 0 0 0 0 0 0 0 0 0 0 0 0 0 0 0 0 0 0 0 0 0 0 0 0 0 0 0 0 -0 0 0 0 0 0 0 -0 0 0 0 0
0 0 0 0 0 0 -0 -0 -0 -0 0 0 0 0 0 -0 0 0 0 0 0 0 0 0 0 0 0 0 0 0 0 0 0 0 0 0 0 0 -0 0 0 0 0 0 0 0 0 -0 -0 -0 0 0 0 0
0 0 0 0 -0 -0 -0 -0 0 0 0 0 0 0 0 0 0 0 0 0 0 0 0 0 0 0 0 0 0 0 0 0 0 0 0 0 0 0 0 0 0 0 0 0 0 0 -0 -0 0 0 0 0 0 0
0 0 0 -0 -0 0 0 -0 0 0 0 0 0 0 0 0 0 0 0 0 0 0 0 0 0 0 0 0 0 0 0 0 0 0 0 0 0 0 0 0 0 -0 0 0 -0 0 -0 -0 -0 0 0 0 0 0
0 0 0 0 0 0 0 0 -0 -0 0 0 0 0 0 0 0 0 0 0 0 0 0 0 0 0 0 0 0 0 0 0 0 -0 -0 0 0 0 0 0 -0 -0 -0 -0 -0 0 -0 0 0 0 0 0 0 0
-0 -0 -0 0 0 0 0 0 0 0 0 0 0 0 0 0 0 0 0 0 0 0 0 0 0 0 0 0 0 0 0 0 -0 0 -0 -0 0 0 0 -0 -0 -0 -0 -0 0 0 -0 0 -0 -0 0 0 0 0
-0 -0 0 0 0 0 0 0 0 0 0 0 0 0 0 0 0 0 0 -0 0 0 0 0 0 0 0 0 0 0 0 0 0 0 0 0 0 0 -0 -0 -0 0 -0 -0 -0 -0 0 -0 -0 -0 0 0 0 0
0 0 0 0 0 0 0 0 0 0 0 0 0 0 0 0 0 0 0 0 0 0 0 0 0 0 0 0 0 0 0 0 0 0 0 0 -0 -0 -0 -0 0 -0 0 0 -0 -0 0 0 -0 -0 -0 0 0 0
0 0 -0 -0 -0 -0 -0 0 0 0 0 0 0 0 0 -0 0 0 0 0 0 0 0 0 0 0 0 0 0 0 0 0 0 0 -0 0 -0 -0 -0 -0 -0 -0 0 -0 0 0 -0 -0 0 0 0 -0 0 0
0 0 0 -0 -0 -0 -0 -0 0 0 0 0 -0 0 0 0 0 0 0 0 0 0 0 0 0 0 0 0 0 0 0 0 0 0 0 0 0 -0 0 -0 -0 -0 0 0 0 0 -0 -0 -0 -0 -0 -0 -0 -0
-0 0 -0 -0 0 -0 -0 -0 0 0 -0 0 0 0 0 -0 -0 -0 0 -0 0 0 0 0 0 0 0 0 -0 0 0 0 0 0 0 -0 -0 0 -0 -0 0 -0 0 0 0 0 0 -0 0 -0 -0 -0 -0 -0
0 0 0 0 0 0 0 0 0 0 0 0 0 -0 -0 -0 -0 -0 -0 -0 -0 -0 -0 -0 0 0 0 0 -0 0 0 0 0 0 -0 -0 0 0 -0 -0 -0 -0 0 0 0 0 0 0 0 0 0 0 0 0
0 0 0 0 0 0 0 0 0 -0 0 0 0 -0 0 0 0 0 -0 0 -0 -0 0 0 0 0 0 0 0 0 0 0 0 0 0 0 0 -0 -0 0 -0 -0 0 -0 0 0 0 0 0 0 0 0 0 0
0 0 0 0 0 0 0 0 0 0 0 0 0 0 0 -0 -0 -0 0 0 0 0 0 0 -0 -0 0 0 0 0 0 0 0 0 0 0 0 -0 0 0 -0 -0 0 -0 -0 -0 0 0 0 0 0 0 0 0
0 0 0 0 0 0 0 0 0 0 0 0 0 0 0 0 0 0 -0 -0 -0 -0 0 0 -0 0 0 0 0 0 0 0 0 0 0 0 0 -0 -0 0 -0 -0 -0 -0 0 0 0 0 0 0 0 0 0 0
0 0 0 0 0 0 0 0 0 0 0 0 0 0 0 0 0 0 0 0 0 0 0 0 0 0 0 0 0 0 0 0 0 0 0 0 0 0 0 -0 0 0 0 0 0 0 0 0 0 0 0 0 0 0
0 0 0 0 0 0 0 0 -0 0 -0 -0 0 0 -0 -0 -0 0 0 0 0 0 0 0 0 0 0 0 0 0 0 0 0 0 0 0 0 0 0 0 0 0 0 0 0 0 0 0 0 0 -0 0 0 0
0 0 0 0 0 0 0 -0 0 0 0 0 0 0 0 -0 -0 0 0 0 0 0 0 0 0 0 0 0 0 0 0 0 0 0 0 0 0 0 0 0 0 0 -0 0 0 0 0 0 0 0 -0 0 0 0
0 0 0 0 0 0 0 0 0 0 0 0 0 0 -0 -0 -0 0 -0 0 0 0 -0 -0 0 0 0 0 0 0 0 0 0 0 0 0 0 0 0 0 0 0 0 0 0 0 0 0 0 0 0 0 0 0
0 0 0 0 0 0 0 0 0 0 0 0 0 0 0 -0 -0 0 0 0 0 0 0 0 -0 0 0 0 0 0 0 0 0 0 0 0 0 0 0 0 0 0 0 0 0 0 0 0 0 0 0 0 0 0
0 0 0 0 0 0 0 0 0 0 0 0 0 0 0 0 0 0 -0 -0 0 0 0 0 0 0 0 0 0 0 0 0 0 0 0 0 0 0 0 0 0 0 0 0 0 0 0 0 0 0 0 0 0 -0
0 0 0 0 0 0 0 0 0 0 0 0 0 0 0 0 0 0 -0 -0 -0 -0 0 0 0 0 0 0 0 0 0 0 0 0 0 0 0 0 0 0 0 0 0 0 0 0 0 0 0 0 0 0 0 0
0 0 0 0 0 0 0 0 0 0 0 0 0 0 0 0 0 0 0 -0 -0 -0 -0 0 0 0 0 0 0 0 0 0 0 0 0 0 0 0 0 0 0 0 0 0 0 0 0 0 0 0 0 0 0 0
0 0 0 0 0 0 0 0 0 0 0 0 0 0 0 0 0 0 0 0 -0 -0 -0 0 0 0 0 0 0 0 0 0 0 0 0 0 0 0 0 0 0 0 0 0 0 0 0 0 0 0 0 0 -0 -0
Wind_Speed_500mb
77 76 75 71 76 81 81 78 74 81 72 64 54 46 37 29 29 31 15 17 17 20 12 9 13 16 7 16 15 14 6 19 17 18 18 17 21 24 28 36 32 22 19 23 26 34 43 27 21 20 14 13 20 27
76 82 76 74 77 80 80 77 77 78 75 68 57 47 38 32 32 36 11 12 18 13 8 7 17 21 19 11 18 17 10 8 11 9 12 11 21 15 26 29 29 35 33 23 25 19 6 1 15 3 13 24 35 25
81 82 81 79 82 79 79 77 80 80 71 69 57 47 39 34 38 29 10 16 12 18 27 30 25 23 28 27 18 13 26 14 9 8 11 9 13 17 22 27 32 40 30 29 30 31 43 44 34 33 30 35 37 35
81 87 84 84 82 79 80 80 78 77 71 69 54 46 39 38 38 31 12 13 17 7 12 11 11 18 20 28 32 32 19 6 12 15 25 16 19 23 23 31 32 32 33 28 36 36 48 58 55 55 42 32 44 53
92 88 85 83 81 79 75 81 77 70 75 64 52 44 40 39 38 27 13 15 15 7 8 2 5 13 15 15 25 31 29 28 26 27 23 21 38 30 40 32 29 39 37 30 33 50 52 55 51 54 56 53 56 59
90 89 86 85 81 78 79 79 74 78 68 61 53 47 42 42 40 23 10 14 16 14 6 5 8 11 14 18 25 20 25 29 33 33 23 25 42 34 17 27 42 48 56 62 63 58 59 60 61 60 63 64 62 63
93 92 85 83 81 74 75 82 82 75 70 62 53 45 39 39 31 16 3 14 23 16 4 7 11 17 8 11 17 22 24 17 24 31 40 42 44 42 28 38 57 66 61 57 56 58 68 67 66 60 61 64 64 65
89 91 85 85 81 81 84 85 81 76 69 58 48 42 41 42 21 15 5 13 26 9 8 6 4 16 15 10 11 15 16 15 15 26 24 37 47 47 26 47 57 63 61 61 62 59 63 64 65 63 64 65 64 64
93 91 89 95 86 89 89 82 79 72 64 58 52 49 44 20 15 11 10 24 13 6 3 6 9 6 20 9 4 11 13 10 21 24 33 27 22 18 26 43 48 47 47 51 55 57 61 66 70 71 71 72 71 70
95 96 94 89 88 89 87 83 79 73 67 63 58 20 14 17 21 22 11 8 10 11 12 15 19 8 20 16 12 4 12 11 16 22 33 26 31 69 73 73 72 68 64 59 60 57 59 60 60 58 56 55 55 65
96 92 90 92 89 85 84 81 78 75 70 48 17 9 26 28 20 8 8 11 14 9 17 19 25 14 16 13 7 19 6 7 8 3 7 9 23 30 31 39 34 36 42 50 49 54 57 66 68 65 64 64 68 66
97 93 90 88 85 83 83 84 83 65 40 26 23 36 31 9 5 7 9 8 10 9 21 20 16 23 14 9 14 10 7 8 12 11 7 10 7 10 17 23 29 33 36 38 44 54 62 70 70 68 68 70 69 62
92 89 86 83 81 80 80 78 39 41 41 45 18 13 12 8 7 12 16 10 9 13 13 19 20 16 10 18 15 8 8 12 7 7 9 20 2 9 16 23 28 33 33 40 47 54 61 78 64 61 57 59 50 69
84 80 77 76 75 78 77 54 49 53 33 10 10 9 11 10 11 11 13 9 10 12 16 16 17 11 14 13 12 9 10 7 7 10 25 11 14 17 23 28 34 37 34 42 51 59 61 38 29 27 29 31 29 51
76 73 70 68 67 70 58 53 47 19 8 7 7 7 14 18 12 9 4 4 10 10 11 10 9 10 11 8 7 8 7 11 12 14 8 10 21 25 25 30 35 34 35 48 44 49 59 9 10 15 23 40 59 78
68 64 59 60 60 56 47 44 21 11 5 4 6 9 10 12 16 19 14 16 13 8 7 7 5 4 10 7 10 14 10 8 6 6 17 17 22 24 28 30 30 31 39 51 34 29 26 33 41 49 58 65 73 89
46 45 53 51 48 44 39 19 13 7 6 5 13 19 17 15 17 10 13 13 13 13 10 7 8 13 7 9 19 9 19 9 17 20 18 17 23 27 28 28 30 38 31 18 34 44 42 44 54 67 72 78 82 83
37 51 47 45 43 34 16 9 7 8 11 18 18 19 21 23 16 9 12 11 16 13 7 7 7 8 8 15 15 11 15 16 18 16 15 20 26 26 22 28 31 20 14 17 31 7 26 51 55 57 74 81 84 83
45 51 49 45 32 15 10 12 7 7 19 18 22 15 11 17 20 17 12 12 13 14 5 5 9 10 14 21 25 25 23 21 26 21 20 20 26 26 27 24 15 34 36 28 23 20 34 32 48 47 54 55 55 56
39 44 43 37 16 4 6 6 10 10 8 10 14 15 15 20 18 16 13 11 17 10 9 8 9 16 16 16 20 24 22 24 22 19 19 26 29 33 30 23 25 35 27 30 32 33 50 51 52 43 42 45 51 53
32 28 27 15 4 5 4 3 6 6 10 10 11 11 12 13 18 23 14 22 11 11 11 23 27 13 13 14 16 20 15 16 14 17 22 24 32 33 28 24 19 25 24 21 30 41 45 45 48 45 41 45 42 45
22 25 13 10 3 4 6 8 6 6 7 10 11 13 8 8 13 17 15 13 12 12 14 12 19 18 15 12 12 8 12 14 12 14 15 21 24 25 33 24 28 26 24 22 29 28 42 42 36 43 48 51 44 49
28 20 9 9 5 6 7 7 8 9 7 7 8 9 10 11 13 31 12 9 6 11 18 14 16 15 18 20 14 8 7 1 12 10 12 22 20 28 30 29 28 22 25 26 23 26 28 34 32 33 37 55 61 59
13 13 9 9 14 6 7 8 10 8 7 7 6 5 6 3 10 9 4 6 10 15 12 8 5 3 7 9 9 6 3 3 4 4 8 13 17 23 21 30 29 26 21 20 24 26 24 31 32 33 38 44 54 56
3 7 8 10 12 8 11 9 9 4 2 4 4 5 3 4 4 3 4 5 13 15 13 6 5 7 10 9 7 7 3 1 6 6 6 10 20 21 25 32 29 29 23 22 24 24 25 29 32 36 52 57 52 50
6 4 5 11 7 8 9 6 5 6 3 3 5 4 1 5 4 6 5 7 2 3 5 9 12 12 12 15 11 8 7 4 4 3 5 9 12 21 24 26 26 30 28 21 21 24 27 30 37 42 37 36 45 56
7 10 8 6 4 7 3 5 4 4 6 9 7 8 4 3 3 5 6 7 12 14 16 18 18 15 16 14 13 12 10 8 8 3 1 3 8 12 18 21 21 22 22 24 21 23 25 25 23 29 37 38 45 55
6 7 6 11 8 14 7 6 7 8 5 8 8 3 7 9 7 11 14 19 17 14 18 19 24 26 23 19 16 14 12 13 15 20 11 6 1 6 12 14 24 27 21 25 22 20 22 27 30 35 37 34 51 56
5 6 7 15 10 8 10 10 10 7 12 4 6 5 4 6 12 23 33 17 10 9 11 13 13 17 21 20 19 20 19 11 9 12 15 16 12 6 7 9 13 17 20 21 25 27 30 27 29 31 35 46 56 54
17 16 14 13 7 7 9 10 14 16 20 14 4 2 1 4 23 32 37 17 6 5 7 10 12 18 21 21 21 21 22 20 16 15 11 19 19 16 11 9 9 11 13 19 21 22 21 28 30 46 58 59 53 50
6 8 17 10 4 1 2 6 16 28 26 27 24 13 8 6 10 45 41 23 17 7 4 3 10 12 17 22 24 24 21 21 20 29 20 11 12 24 20 15 10 8 11 16 18 20 24 30 41 55 59 51 40 36
9 6 2 4 4 5 5 5 11 11 17 20 32 39 26 12 16 36 52 35 17 3 3 4 3 6 15 14 21 25 20 17 25 30 28 17 20 27 23 20 16 12 10 16 22 23 28 31 37 46 39 45 41 35
2 3 1 3 6 5 5 6 7 5 4 12 20 33 38 22 14 35 43 42 39 32 19 3 3 2 13 16 18 19 14 16 24 35 40 36 45 35 30 26 22 18 16 24 24 25 25 29 32 36 35 30 34 33
Wind_Direction_500mb
217 221 217 216 214 211 206 201 196 198 198 199 199 199 201 200 188 172 212 218 205 245 236 243 235 236 244 249 243 133 189 214 215 235 255 246 251 247 253 249 267 227 212 232 233 253 260 267 267 273 35 332 325 319
219 214 210 210 207 203 199 196 191 195 196 193 193 194 197 192 178 173 197 213 205 225 339 222 226 233 236 273 267 169 259 299 228 246 234 256 254 245 255 258 229 249 262 264 262 240 200 3 317 260 322 311 310 314
214 208 203 199 196 196 193 189 187 189 190 187 185 192 190 181 173 160 173 179 190 241 260 237 239 248 231 225 219 269 219 242 255 291 299 273 264 292 268 257 251 270 250 258 274 268 276 284 271 276 290 312 308 303
204 199 190 188 189 189 186 182 187 185 185 178 183 187 185 179 169 164 163 182 200 244 271 155 210 237 228 224 227 231 253 284 252 263 250 262 263 269 272 283 289 287 304 291 280 278 283 278 279 282 287 298 302 303
189 181 180 181 181 178 176 177 185 180 177 172 177 176 176 176 169 158 179 195 211 281 302 45 223 220 213 210 224 225 231 240 254 249 241 250 265 273 270 272 261 261 268 267 269 282 287 290 298 298 303 294 294 294
172 173 171 171 175 173 174 177 177 167 165 166 168 166 166 162 155 156 186 212 202 196 248 243 128 213 213 214 220 217 223 233 240 252 264 274 265 286 263 261 263 261 259 264 269 278 283 285 282 281 282 283 284 283
166 165 168 169 166 166 167 167 159 160 160 164 164 162 162 157 157 198 180 147 181 166 218 254 197 175 191 217 208 216 219 240 249 254 254 254 258 249 259 264 271 271 270 276 274 278 279 277 280 280 279 279 280 277
161 161 159 160 159 158 157 159 158 155 158 160 157 153 151 158 163 184 190 181 162 175 211 262 199 153 169 189 186 185 201 210 229 242 246 245 251 245 254 257 264 267 269 270 268 267 267 274 277 276 276 275 275 275
154 154 152 152 152 154 154 154 151 151 153 149 143 139 138 158 172 168 180 150 169 155 237 269 262 105 154 135 158 226 192 223 233 217 241 245 231 234 248 256 265 266 266 280 284 283 282 280 280 279 275 274 272 271
146 145 145 149 148 150 149 146 150 150 146 139 132 135 149 159 149 131 130 150 198 215 220 245 246 219 178 162 175 191 225 234 259 238 237 225 246 256 259 260 266 274 276 277 276 283 288 290 288 286 287 279 276 276
142 142 145 145 145 144 147 148 146 141 138 141 148 103 131 146 147 157 151 207 191 217 214 219 229 243 178 203 192 208 186 276 265 277 246 235 251 250 266 240 275 284 288 290 291 296 294 291 290 282 282 275 282 278
138 136 137 140 142 143 143 142 141 137 149 158 134 125 133 131 154 199 185 205 206 248 157 204 175 216 234 188 239 212 240 186 256 345 253 257 282 6 340 321 302 299 284 287 298 297 295 293 284 281 282 286 288 281
134 135 138 140 142 142 141 138 134 150 134 129 133 138 145 159 169 208 186 199 202 193 179 168 172 172 197 226 228 213 234 239 296 228 242 261 153 326 333 322 315 305 307 311 307 309 308 306 284 278 277 280 287 283
134 136 138 139 140 141 143 142 139 139 152 145 128 150 211 173 226 199 224 185 134 186 181 195 180 175 219 203 211 251 228 222 232 238 257 15 344 317 315 317 319 317 316 317 319 318 323 315 300 276 265 262 232 148
131 133 135 139 144 148 148 144 142 142 131 159 171 208 200 223 209 240 148 142 133 175 183 181 198 220 209 238 247 261 230 236 235 273 347 356 327 327 335 325 322 318 323 323 319 325 331 287 188 133 136 135 125 126
129 129 136 143 147 148 146 143 130 134 114 177 223 247 244 261 207 187 199 225 193 197 190 211 176 220 225 227 216 229 253 257 19 3 353 350 348 346 332 327 323 323 317 323 328 310 81 101 106 110 112 114 112 116
119 132 142 143 144 143 135 141 142 178 221 230 222 226 267 206 216 244 247 196 186 184 196 186 213 220 280 244 228 236 259 357 339 352 354 345 342 341 333 328 328 332 343 8 12 111 100 98 103 106 99 101 106 113
134 144 145 143 139 136 144 145 153 200 233 231 248 222 202 230 238 209 204 181 183 185 214 219 250 237 243 266 263 353 5 340 328 334 346 348 346 340 334 342 330 22 58 78 28 91 98 120 115 113 114 112 112 115
139 146 148 149 141 157 155 178 188 239 232 234 221 236 231 234 234 241 216 206 205 201 216 244 250 246 247 288 315 322 332 332 329 328 342 341 348 345 340 327 46 60 64 67 23 38 168 152 136 127 124 122 119 116
133 143 154 151 138 165 187 166 196 269 284 239 239 246 247 248 261 277 258 219 201 178 222 220 241 269 281 292 299 299 292 305 308 335 345 337 352 2 358 7 94 54 42 69 46 67 137 127 139 127 128 126 128 128
122 146 152 144 252 276 277 260 233 239 289 295 304 301 261 261 257 246 223 196 219 208 223 225 246 266 282 283 281 273 279 291 311 334 346 343 352 18 9 38 80 72 56 62 76 58 98 120 130 123 124 129 129 127
149 136 161 207 285 282 269 237 256 273 261 250 244 225 215 203 203 217 200 178 211 214 212 232 235 234 244 254 236 285 284 301 315 325 344 343 7 22 23 35 63 86 74 74 92 85 70 82 114 136 133 122 122 124
162 171 181 201 215 239 252 209 229 221 241 230 225 192 172 176 163 154 194 184 212 236 201 215 227 236 225 236 213 248 277 208 319 334 359 1 0 46 38 29 57 68 76 67 93 120 136 136 124 126 130 135 134 131
192 181 201 209 208 251 221 217 218 241 241 241 240 88 82 88 163 191 144 118 142 149 158 148 136 148 228 122 130 190 203 274 296 33 17 13 3 38 55 50 47 54 66 71 81 92 118 143 151 153 153 148 139 137
175 218 198 213 209 232 215 188 198 206 327 31 22 61 44 307 221 146 94 100 134 136 143 169 193 208 213 234 216 199 192 43 352 16 39 20 34 32 33 64 51 53 59 66 74 89 102 118 132 141 148 151 153 152
258 104 347 356 40 355 357 5 12 356 329 332 49 353 243 234 221 128 96 118 93 278 254 247 249 251 242 228 225 202 174 181 212 283 78 37 24 34 31 48 54 49 45 73 82 92 101 119 132 142 155 176 171 164
22 25 2 19 311 305 315 41 4 337 16 12 7 324 280 252 88 62 25 4 305 276 261 255 243 243 241 241 230 227 235 227 228 281 144 60 46 45 36 45 53 55 53 70 84 95 107 117 133 147 160 166 169 162
50 2 347 359 41 32 25 8 6 19 12 346 288 313 20 16 14 340 328 337 338 278 268 263 251 238 232 239 235 234 227 230 239 221 248 255 225 54 56 62 60 55 77 91 84 93 106 114 123 140 143 143 155 157
22 358 21 31 52 40 27 9 10 353 349 322 319 20 31 26 21 5 5 355 308 300 265 248 222 210 219 218 214 219 221 215 217 215 214 212 202 179 104 83 75 68 66 92 100 106 112 118 127 140 152 154 147 141
48 71 69 55 33 43 12 49 27 45 39 49 60 59 243 327 31 24 19 24 339 338 228 227 214 216 220 209 208 214 202 201 194 189 201 208 198 187 165 140 107 92 85 93 100 100 108 125 131 134 134 133 129 122
65 56 62 78 76 108 15 28 44 43 44 41 38 28 16 341 356 23 32 50 57 65 101 185 223 221 203 194 198 197 209 220 206 192 184 181 183 183 177 165 150 127 122 120 118 117 121 119 140 142 137 129 132 138
71 76 103 89 113 135 189 62 97 55 23 24 28 27 33 26 24 7 23 34 40 42 81 88 152 207 197 205 194 201 217 223 203 190 180 176 172 161 174 172 167 158 160 140 133 131 130 137 150 155 151 150 142 135
350 47 330 233 203 181 96 44 59 135 32 37 29 22 21 19 11 358 5 26 26 29 43 53 245 225 187 179 190 185 193 190 186 179 173 174 170 164 166 171 167 166 168 142 134 139 145 141 147 149 154 154 140 132
Wind_Speed_850mb
77 76 75 71 76 81 81 78 74 81 72 64 54 46 37 29 29 31 15 17 17 20 12 9 13 16 7 16 15 14 6 19 17 18 18 17 21 24 28 36 32 22 19 23 26 34 43 27 21 20 14 13 20 27
76 82 76 74 77 80 80 77 77 78 75 68 57 47 38 32 32 36 11 12 18 13 8 7 17 21 19 11 18 17 10 8 11 9 12 11 21 15 26 29 29 35 33 23 25 19 6 1 15 3 13 24 35 25
81 82 81 79 82 79 79 77 80 80 71 69 57 47 39 34 38 29 10 16 12 18 27 30 25 23 28 27 18 13 26 14 9 8 11 9 13 17 22 27 32 40 30 29 30 31 43 44 34 33 30 35 37 35
81 87 84 84 82 79 80 80 78 77 71 69 54 46 39 38 38 31 12 13 17 7 12 11 11 18 20 28 32 32 19 6 12 15 25 16 19 23 23 31 32 32 33 28 36 36 48 58 55 55 42 32 44 53
92 88 85 83 81 79 75 81 77 70 75 64 52 44 40 39 38 27 13 15 15 7 8 2 5 13 15 15 25 31 29 28 26 27 23 21 38 30 40 32 29 39 37 30 33 50 52 55 51 54 56 53 56 59
90 89 86 85 81 78 79 79 74 78 68 61 53 47 42 42 40 23 10 14 16 14 6 5 8 11 14 18 25 20 25 29 33 33 23 25 42 34 17 27 42 48 56 62 63 58 59 60 61 60 63 64 62 63
93 92 85 83 81 74 75 82 82 75 70 62 53 45 39 39 31 16 3 14 23 16 4 7 11 17 8 11 17 22 24 17 24 31 40 42 44 42 28 38 57 66 61 57 56 58 68 67 66 60 61 64 64 65
89 91 85 85 81 81 84 85 81 76 69 58 48 42 41 42 21 15 5 13 26 9 8 6 4 16 15 10 11 15 16 15 15 26 24 37 47 47 26 47 57 63 61 61 62 59 63 64 65 63 64 65 64 64
93 91 89 95 86 89 89 82 79 72 64 58 52 49 44 20 15 11 10 24 13 6 3 6 9 6 20 9 4 11 13 10 21 24 33 27 22 18 26 43 48 47 47 51 55 57 61 66 70 71 71 72 71 70
95 96 94 89 88 89 87 83 79 73 67 63 58 20 14 17 21 22 11 8 10 11 12 15 19 8 20 16 12 4 12 11 16 22 33 26 31 69 73 73 72 68 64 59 60 57 59 60 60 58 56 55 55 65
96 92 90 92 89 85 84 81 78 75 70 48 17 9 26 28 20 8 8 11 14 9 17 19 25 14 16 13 7 19 6 7 8 3 7 9 23 30 31 39 34 36 42 50 49 54 57 66 68 65 64 64 68 66
97 93 90 88 85 83 83 84 83 65 40 26 23 36 31 9 5 7 9 8 10 9 21 20 16 23 14 9 14 10 7 8 12 11 7 10 7 10 17 23 29 33 36 38 44 54 62 70 70 68 68 70 69 62
92 89 86 83 81 80 80 78 39 41 41 45 18 13 12 8 7 12 16 10 9 13 13 19 20 16 10 18 15 8 8 12 7 7 9 20 2 9 16 23 28 33 33 40 47 54 61 78 64 61 57 59 50 69
84 80 77 76 75 78 77 54 49 53 33 10 10 9 11 10 11 11 13 9 10 12 16 16 17 11 14 13 12 9 10 7 7 10 25 11 14 17 23 28 34 37 34 42 51 59 61 38 29 27 29 31 29 51
76 73 70 68 67 70 58 53 47 19 8 7 7 7 14 18 12 9 4 4 10 10 11 10 9 10 11 8 7 8 7 11 12 14 8 10 21 25 25 30 35 34 35 48 44 49 59 9 10 15 23 40 59 78
68 64 59 60 60 56 47 44 21 11 5 4 6 9 10 12 16 19 14 16 13 8 7 7 5 4 10 7 10 14 10 8 6 6 17 17 22 24 28 30 30 31 39 51 34 29 26 33 41 49 58 65 73 89
46 45 53 51 48 44 39 19 13 7 6 5 13 19 17 15 17 10 13 13 13 13 10 7 8 13 7 9 19 9 19 9 17 20 18 17 23 27 28 28 30 38 31 18 34 44 42 44 54 67 72 78 82 83
37 51 47 45 43 34 16 9 7 8 11 18 18 19 21 23 16 9 12 11 16 13 7 7 7 8 8 15 15 11 15 16 18 16 15 20 26 26 22 28 31 20 14 17 31 7 26 51 55 57 74 81 84 83
45 51 49 45 32 15 10 12 7 7 19 18 22 15 11 17 20 17 12 12 13 14 5 5 9 10 14 21 25 25 23 21 26 21 20 20 26 26 27 24 15 34 36 28 23 20 34 32 48 47 54 55 55 56
39 44 43 37 16 4 6 6 10 10 8 10 14 15 15 20 18 16 13 11 17 10 9 8 9 16 16 16 20 24 22 24 22 19 19 26 29 33 30 23 25 35 27 30 32 33 50 51 52 43 42 45 51 53
32 28 27 15 4 5 4 3 6 6 10 10 11 11 12 13 18 23 14 22 11 11 11 23 27 13 13 14 16 20 15 16 14 17 22 24 32 33 28 24 19 25 24 21 30 41 45 45 48 45 41 45 42 45
22 25 13 10 3 4 6 8 6 6 7 10 11 13 8 8 13 17 15 13 12 12 14 12 19 18 15 12 12 8 12 14 12 14 15 21 24 25 33 24 28 26 24 22 29 28 42 42 36 43 48 51 44 49
28 20 9 9 5 6 7 7 8 9 7 7 8 9 10 11 13 31 12 9 6 11 18 14 16 15 18 20 14 8 7 1 12 10 12 22 20 28 30 29 28 22 25 26 23 26 28 34 32 33 37 55 61 59
13 13 9 9 14 6 7 8 10 8 7 7 6 5 6 3 10 9 4 6 10 15 12 8 5 3 7 9 9 6 3 3 4 4 8 13 17 23 21 30 29 26 21 20 24 26 24 31 32 33 38 44 54 56
3 7 8 10 12 8 11 9 9 4 2 4 4 5 3 4 4 3 4 5 13 15 13 6 5 7 10 9 7 7 3 1 6 6 6 10 20 21 25 32 29 29 23 22 24 24 25 29 32 36 52 57 52 50
6 4 5 11 7 8 9 6 5 6 3 3 5 4 1 5 4 6 5 7 2 3 5 9 12 12 12 15 11 8 7 4 4 3 5 9 12 21 24 26 26 30 28 21 21 24 27 30 37 42 37 36 45 56
7 10 8 6 4 7 3 5 4 4 6 9 7 8 4 3 3 5 6 7 12 14 16 18 18 15 16 14 13 12 10 8 8 3 1 3 8 12 18 21 21 22 22 24 21 23 25 25 23 29 37 38 45 55
6 7 6 11 8 14 7 6 7 8 5 8 8 3 7 9 7 11 14 19 17 14 18 19 24 26 23 19 16 14 12 13 15 20 11 6 1 6 12 14 24 27 21 25 22 20 22 27 30 35 37 34 51 56
5 6 7 15 10 8 10 10 10 7 12 4 6 5 4 6 12 23 33 17 10 9 11 13 13 17 21 20 19 20 19 11 9 12 15 16 12 6 7 9 13 17 20 21 25 27 30 27 29 31 35 46 56 54
17 16 14 13 7 7 9 10 14 16 20 14 4 2 1 4 23 32 37 17 6 5 7 10 12 18 21 21 21 21 22 20 16 15 11 19 19 16 11 9 9 11 13 19 21 22 21 28 30 46 58 59 53 50
6 8 17 10 4 1 2 6 16 28 26 27 24 13 8 6 10 45 41 23 17 7 4 3 10 12 17 22 24 24 21 21 20 29 20 11 12 24 20 15 10 8 11 16 18 20 24 30 41 55 59 51 40 36
9 6 2 4 4 5 5 5 11 11 17 20 32 39 26 12 16 36 52 35 17 3 3 4 3 6 15 14 21 25 20 17 25 30 28 17 20 27 23 20 16 12 10 16 22 23 28 31 37 46 39 45 41 35
2 3 1 3 6 5 5 6 7 5 4 12 20 33 38 22 14 35 43 42 39 32 19 3 3 2 13 16 18 19 14 16 24 35 40 36 45 35 30 26 22 18 16 24 24 25 25 29 32 36 35 30 34 33
Wind_Direction_850mb
217 221 217 216 214 211 206 201 196 198 198 199 199 199 201 200 188 172 212 218 205 245 236 243 235 236 244 249 243 133 189 214 215 235 255 246 251 247 253 249 267 227 212 232 233 253 260 267 267 273 35 332 325 319
219 214 210 210 207 203 199 196 191 195 196 193 193 194 197 192 178 173 197 213 205 225 339 222 226 233 236 273 267 169 259 299 228 246 234 256 254 245 255 258 229 249 262 264 262 240 200 3 317 260 322 311 310 314
214 208 203 199 196 196 193 189 187 189 190 187 185 192 190 181 173 160 173 179 190 241 260 237 239 248 231 225 219 269 219 242 255 291 299 273 264 292 268 257 251 270 250 258 274 268 276 284 271 276 290 312 308 303
204 199 190 188 189 189 186 182 187 185 185 178 183 187 185 179 169 164 163 182 200 244 271 155 210 237 228 224 227 231 253 284 252 263 250 262 263 269 272 283 289 287 304 291 280 278 283 278 279 282 287 298 302 303
189 181 180 181 181 178 176 177 185 180 177 172 177 176 176 176 169 158 179 195 211 281 302 45 223 220 213 210 224 225 231 240 254 249 241 250 265 273 270 272 261 261 268 267 269 282 287 290 298 298 303 294 294 294
172 173 171 171 175 173 174 177 177 167 165 166 168 166 166 162 155 156 186 212 202 196 248 243 128 213 213 214 220 217 223 233 240 252 264 274 265 286 263 261 263 261 259 264 269 278 283 285 282 281 282 283 284 283
166 165 168 169 166 166 167 167 159 160 160 164 164 162 162 157 157 198 180 147 181 166 218 254 197 175 191 217 208 216 219 240 249 254 254 254 258 249 259 264 271 271 270 276 274 278 279 277 280 280 279 279 280 277
161 161 159 160 159 158 157 159 158 155 158 160 157 153 151 158 163 184 190 181 162 175 211 262 199 153 169 189 186 185 201 210 229 242 246 245 251 245 254 257 264 267 269 270 268 267 267 274 277 276 276 275 275 275
154 154 152 152 152 154 154 154 151 151 153 149 143 139 138 158 172 168 180 150 169 155 237 269 262 105 154 135 158 226 192 223 233 217 241 245 231 234 248 256 265 266 266 280 284 283 282 280 280 279 275 274 272 271
146 145 145 149 148 150 149 146 150 150 146 139 132 135 149 159 149 131 130 150 198 215 220 245 246 219 178 162 175 191 225 234 259 238 237 225 246 256 259 260 266 274 276 277 276 283 288 290 288 286 287 279 276 276
142 142 145 145 145 144 147 148 146 141 138 141 148 103 131 146 147 157 151 207 191 217 214 219 229 243 178 203 192 208 186 276 265 277 246 235 251 250 266 240 275 284 288 290 291 296 294 291 290 282 282 275 282 278
138 136 137 140 142 143 143 142 141 137 149 158 134 125 133 131 154 199 185 205 206 248 157 204 175 216 234 188 239 212 240 186 256 345 253 257 282 6 340 321 302 299 284 287 298 297 295 293 284 281 282 286 288 281
134 135 138 140 142 142 141 138 134 150 134 129 133 138 145 159 169 208 186 199 202 193 179 168 172 172 197 226 228 213 234 239 296 228 242 261 153 326 333 322 315 305 307 311 307 309 308 306 284 278 277 280 287 283
134 136 138 139 140 141 143 142 139 139 152 145 128 150 211 173 226 199 224 185 134 186 181 195 180 175 219 203 211 251 228 222 232 238 257 15 344 317 315 317 319 317 316 317 319 318 323 315 300 276 265 262 232 148
131 133 135 139 144 148 148 144 142 142 131 159 171 208 200 223 209 240 148 142 133 175 183 181 198 220 209 238 247 261 230 236 235 273 347 356 327 327 335 325 322 318 323 323 319 325 331 287 188 133 136 135 125 126
129 129 136 143 147 148 146 143 130 134 114 177 223 247 244 261 207 187 199 225 193 197 190 211 176 220 225 227 216 229 253 257 19 3 353 350 348 346 332 327 323 323 317 323 328 310 81 101 106 110 112 114 112 116
119 132 142 143 144 143 135 141 142 178 221 230 222 226 267 206 216 244 247 196 186 184 196 186 213 220 280 244 228 236 259 357 339 352 354 345 342 341 333 328 328 332 343 8 12 111 100 98 103 106 99 101 106 113
134 144 145 143 139 136 144 145 153 200 233 231 248 222 202 230 238 209 204 181 183 185 214 219 250 237 243 266 263 353 5 340 328 334 346 348 346 340 334 342 330 22 58 78 28 91 98 120 115 113 114 112 112 115
139 146 148 149 141 157 155 178 188 239 232 234 221 236 231 234 234 241 216 206 205 201 216 244 250 246 247 288 315 322 332 332 329 328 342 341 348 345 340 327 46 60 64 67 23 38 168 152 136 127 124 122 119 116
133 143 154 151 138 165 187 166 196 269 284 239 239 246 247 248 261 277 258 219 201 178 222 220 241 269 281 292 299 299 292 305 308 335 345 337 352 2 358 7 94 54 42 69 46 67 137 127 139 127 128 126 128 128
122 146 152 144 252 276 277 260 233 239 289 295 304 301 261 261 257 246 223 196 219 208 223 225 246 266 282 283 281 273 279 291 311 334 346 343 352 18 9 38 80 72 56 62 76 58 98 120 130 123 124 129 129 127
149 136 161 207 285 282 269 237 256 273 261 250 244 225 215 203 203 217 200 178 211 214 212 232 235 234 244 254 236 285 284 301 315 325 344 343 7 22 23 35 63 86 74 74 92 85 70 82 114 136 133 122 122 124
162 171 181 201 215 239 252 209 229 221 241 230 225 192 172 176 163 154 194 184 212 236 201 215 227 236 225 236 213 248 277 208 319 334 359 1 0 46 38 29 57 68 76 67 93 120 136 136 124 126 130 135 134 131
192 181 201 209 208 251 221 217 218 241 241 241 240 88 82 88 163 191 144 118 142 149 158 148 136 148 228 122 130 190 203 274 296 33 17 13 3 38 55 50 47 54 66 71 81 92 118 143 151 153 153 148 139 137
175 218 198 213 209 232 215 188 198 206 327 31 22 61 44 307 221 146 94 100 134 136 143 169 193 208 213 234 216 199 192 43 352 16 39 20 34 32 33 64 51 53 59 66 74 89 102 118 132 141 148 151 153 152
258 104 347 356 40 355 357 5 12 356 329 332 49 353 243 234 221 128 96 118 93 278 254 247 249 251 242 228 225 202 174 181 212 283 78 37 24 34 31 48 54 49 45 73 82 92 101 119 132 142 155 176 171 164
22 25 2 19 311 305 315 41 4 337 16 12 7 324 280 252 88 62 25 4 305 276 261 255 243 243 241 241 230 227 235 227 228 281 144 60 46 45 36 45 53 55 53 70 84 95 107 117 133 147 160 166 169 162
50 2 347 359 41 32 25 8 6 19 12 346 288 313 20 16 14 340 328 337 338 278 268 263 251 238 232 239 235 234 227 230 239 221 248 255 225 54 56 62 60 55 77 91 84 93 106 114 123 140 143 143 155 157
22 358 21 31 52 40 27 9 10 353 349 322 319 20 31 26 21 5 5 355 308 300 265 248 222 210 219 218 214 219 221 215 217 215 214 212 202 179 104 83 75 68 66 92 100 106 112 118 127 140 152 154 147 141
48 71 69 55 33 43 12 49 27 45 39 49 60 59 243 327 31 24 19 24 339 338 228 227 214 216 220 209 208 214 202 201 194 189 201 208 198 187 165 140 107 92 85 93 100 100 108 125 131 134 134 133 129 122
65 56 62 78 76 108 15 28 44 43 44 41 38 28 16 341 356 23 32 50 57 65 101 185 223 221 203 194 198 197 209 220 206 192 184 181 183 183 177 165 150 127 122 120 118 117 121 119 140 142 137 129 132 138
71 76 103 89 113 135 189 62 97 55 23 24 28 27 33 26 24 7 23 34 40 42 81 88 152 207 197 205 194 201 217 223 203 190 180 176 172 161 174 172 167 158 160 140 133 131 130 137 150 155 151 150 142 135
350 47 330 233 203 181 96 44 59 135 32 37 29 22 21 19 11 358 5 26 26 29 43 53 245 225 187 179 190 185 193 190 186 179 173 174 170 164 166 171 167 166 168 142 134 139 145 141 147 149 154 154 140 132